Location: Bittelbronn
(48.4454°N, 8.5870°E)
Time: 16:50:29
(UTC+00:00)

Cosmos 2228 Rocket - Pass Details

Date: 23 May 2024
Orbit: 616 x 648 km, 82.5° (Epoch: 16 June)

Event Time Altitude Azimuth Distance (km) Brightness Sun altitude
Exits shadow 00:05:22 52° 186° (S) 789 3.1 -20.3°
Maximum altitude 00:06:28 88° 101° (E) 639 3.0 -20.2°
Drops below altitude 10° 00:10:59 10° 10° (N) 2,034 6.9 -20.1°
Sets 00:13:15 0° 10° (N) 2,953 8.2 -20.0°
